Location: Poughquag
(41.6090°N, 73.6820°W)
Time: 07:39:51
(UTC-04:00)

Vanguard 1 Rocket - All Passes

Search period start: 29 May 2020 00:00
Search period end: 08 June 2020 00:00
Orbit: 653 x 4224 km, 34.3° (Epoch: 28 May)

Date Brightness Start Highest point End Pass type
(mag) Time Alt. Az. Time Alt. Az. Time Alt. Az.
29 May - 00:28:27 10° SW 00:46:42 39° SSE 00:57:18 10° E visible
29 May - 02:58:59 10° WSW 03:14:15 55° S 03:22:04 10° E visible
29 May - 05:30:20 10° W 05:39:53 44° SSW 05:45:21 10° SE daylight
29 May - 08:01:32 10° WSW 08:03:30 12° SW 08:05:16 10° SSW daylight
29 May - 23:15:24 10° SSW 23:33:44 31° SSE 23:45:37 10° E visible
30 May - 01:44:10 10° SW 02:02:09 52° SSE 02:11:33 10° E visible
30 May - 04:16:07 10° W 04:28:48 55° S 04:35:26 10° ESE visible
30 May - 06:47:01 10° W 06:53:15 24° SSW 06:57:34 10° SSE daylight
30 May - 22:03:58 10° S 22:20:28 23° SE 22:32:40 10° E visible
31 May - 00:29:38 10° SW 00:49:30 46° SSE 01:00:41 10° E visible
31 May - 03:01:15 10° WSW 03:17:11 59° S 03:25:15 10° ESE visible
31 May - 05:33:06 10° W 05:42:44 40° SSW 05:48:17 10° SE daylight
31 May - 20:55:36 10° SSE 21:07:07 15° SE 21:16:57 10° ESE visible
31 May - 23:15:56 10° SSW 23:36:23 38° SSE 23:49:14 10° E visible
01 Jun - 01:46:05 10° WSW 02:05:01 58° S 02:14:46 10° E visible
01 Jun - 04:18:41 10° W 04:31:43 53° SSW 04:38:31 10° ESE visible
01 Jun - 06:50:17 10° W 06:55:53 20° SW 06:59:56 10° S daylight
01 Jun - 22:03:35 10° SSW 22:22:59 30° SE 22:36:50 10° E visible
02 Jun - 00:31:07 10° SW 00:52:15 52° SSE 01:03:57 10° E visible
02 Jun - 03:03:36 10° WSW 03:20:06 61° S 03:28:23 10° ESE visible
02 Jun - 05:35:55 10° W 05:45:29 35° SSW 05:51:07 10° SE daylight
02 Jun - 20:53:20 10° S 21:09:29 21° SE 21:22:42 10° E visible
02 Jun - 23:16:54 10° SW 23:39:00 45° SSE 23:52:37 10° E visible
03 Jun - 01:48:10 10° WSW 02:07:51 62° S 02:17:57 10° E visible
03 Jun - 04:21:16 10° W 04:34:33 50° SSW 04:41:32 10° SE visible
03 Jun - 06:53:54 10° WSW 06:58:23 15° SW 07:01:52 10° S daylight
03 Jun - 19:47:52 10° SSE 19:56:10 12° SE 20:03:54 10° ESE daylight
03 Jun - 22:03:53 10° SSW 22:25:25 37° SSE 22:40:32 10° E visible
04 Jun - 00:32:51 10° WSW 00:54:59 58° SSE 01:07:08 10° E visible
04 Jun - 03:06:02 10° W 03:22:57 61° S 03:31:29 10° ESE visible
04 Jun - 05:38:48 10° W 05:48:07 30° SW 05:53:46 10° SSE daylight
04 Jun - 20:52:35 10° S 21:11:45 27° SE 21:27:09 10° E visible
04 Jun - 23:18:13 10° SW 23:41:34 52° SSE 23:55:52 10° E visible
05 Jun - 01:50:23 10° WSW 02:10:40 64° S 02:21:04 10° ESE visible
05 Jun - 04:23:52 10° W 04:37:18 46° SSW 04:44:27 10° SE visible
05 Jun - 06:58:27 10° WSW 07:00:46 11° SW 07:02:48 10° SSW daylight
05 Jun - 19:44:00 10° SSE 19:58:19 18° SE 20:11:16 10° E daylight
05 Jun - 22:04:43 10° SSW 22:27:47 43° SSE 22:43:56 10° E visible
06 Jun - 00:34:48 10° WSW 00:57:42 63° S 01:10:16 10° E visible
06 Jun - 03:08:29 10° W 03:25:46 59° SSW 03:34:32 10° ESE visible
06 Jun - 05:41:50 10° W 05:50:35 25° SW 05:56:12 10° SSE daylight
06 Jun - 20:52:42 10° SSW 21:13:56 34° SE 21:30:59 10° E visible
06 Jun - 23:19:50 10° SW 23:44:07 58° SSE 23:59:01 10° E visible
07 Jun - 01:52:41 10° W 02:13:28 65° S 02:24:09 10° ESE visible
07 Jun - 04:26:31 10° W 04:39:55 41° SSW 04:47:14 10° SE visible
07 Jun - 19:42:43 10° S 20:00:20 24° SE 20:16:17 10° E daylight
07 Jun - 22:05:56 10° SW 22:30:08 50° SSE 22:47:09 10° E visible
